Location: Unspecified
(0.0000°N, 0.0000°E)
Time: 19:05:31
(UTC+00:00)

deb Briz - Pass Details

Date: 14 February 2026
Orbit: 1683 x 2323 km, 64.7° (Epoch: 11 March)

Event Time Altitude Azimuth Distance (km) Brightness Sun altitude
Rises 05:44:49 0° 3° (N) 5,282 ? -7.1°
Reaches altitude 10° 05:49:09 10° 16° (NNE) 4,190 ? -6.1°
Maximum altitude 05:56:59 24° 66° (ENE) 3,070 ? -4.2°
Drops below altitude 10° 06:04:23 10° 116° (ESE) 3,965 ? -2.4°
Sets 06:08:15 0° 129° (SE) 4,938 ? -1.4°
